Regional Weather Roundup
Issued by NWS

Home | Current Version | Previous Version | Text Only | Print | Product List | Glossary Off
Versions: 1 2 3 4 5 6 7 8 9 10 11 12 13 14 15 16 17 18 19 20 21 22 23 24 25 26 27 28 29 30 31 32 33 34 35 36 37 38 39 40 41 42 43 44 45 46 47 48 49 50

000
ASUS43 KDMX 050503
RWRIA

WEATHER ROUNDUP FOR IOWA
NATIONAL WEATHER SERVICE DES MOINES IA
1200 AM CDT THU MAY 05 2016

NOTE: "FAIR" INDICATES FEW OR NO CLOUDS BELOW 12,000 FEET WITH NO
SIGNIFICANT WEATHER AND/OR OBSTRUCTIONS TO VISIBILITY.

* - THESE STATIONS ARE NOT NWS STATIONS...THUS NOT UNDER NWS
QUALITY CONTROL.  THEY ALSO DO NOT REPORT WEATHER SUCH
AS PRECIPITATION OR FOG.

IAZ001>003-012>014-020>022-031>034-043>046-050600-
   NORTHWEST IOWA

CITY           SKY/WX    TMP DP  RH WIND       PRES   REMARKS
CARROLL *      CLEAR     48  39  71 NW6       29.99S
CHEROKEE *     CLEAR     45  40  82 CALM      30.01S
DENISON *      CLEAR     50  39  66 CALM      29.99S
LE MARS *      CLEAR     48  41  76 CALM      30.03S
ORANGE CITY *  CLEAR     59  34  38 N5        30.02S
SHELDON *      PTCLDY    46  36  66 NW3       30.01S
SIOUX CITY     CLEAR     52  38  58 CALM      30.02S
SPENCER        CLEAR     44  36  73 NW6       30.01R
STORM LAKE *   CLEAR     52  36  54 N9        30.01S
$$

IAZ055>058-069>071-079>083-090>094-050600-
   SOUTHWEST IOWA

CITY           SKY/WX    TMP DP  RH WIND       PRES   REMARKS
ATLANTIC *     CLEAR     52  41  66 NW5       30.00F
AUDUBON *      CLEAR     46  39  76 CALM      30.01S
CLARINDA *       N/A     48  45  87 MISG      30.02S
COUNCIL BLFS * CLEAR     55  39  54 NW7       30.01F
CRESTON *      CLEAR     50  39  66 W7        30.00S
HARLAN  *      PTCLDY    46  41  81 NW6       30.04S
LAMONI         CLEAR     48  40  73 W8        29.97F
RED OAK *      CLEAR     57  41  54 NW10      30.01S
SHENANDOAH *   CLEAR     52  43  71 SW5       30.02S
$$

IAZ047>049-059>061-072>074-084-050600-
   CENTRAL IOWA

CITY           SKY/WX    TMP DP  RH WIND       PRES   REMARKS
AMES           CLEAR     51  35  54 N3        29.98R
ANKENY *       CLEAR     48  39  71 N6        29.98R
BOONE *        CLEAR     50  36  57 N7        29.98R
CHARITON *     CLEAR     50  39  66 N7        29.97R
DES MOINES     CLEAR     55  35  47 N5        29.98R
GRINNELL*      CLEAR     48  32  53 N6        29.97R
KNOXVILLE *    CLEAR     50  36  57 NW6       29.96R
MARSHALLTOWN   CLEAR     46  32  58 N9        29.96R
NEWTON *       CLEAR     50  32  50 N7        29.96S
PELLA *        CLEAR     50  35  55 N3        29.98R
PERRY *          N/A     54  37  54 N6        29.98S
$$

IAZ004>006-015-016-023>025-035-036-050600-
   NORTH CENTRAL IOWA

CITY           SKY/WX    TMP DP  RH WIND       PRES   REMARKS
ALGONA *       CLEAR     54  32  43 N5        30.00R
CLARION *      CLEAR     46  28  49 NE5       29.99R
ESTHERVILLE    CLEAR     45  37  73 NW6       30.00R
FORT DODGE *   CLEAR     45  34  65 CALM      29.99S
MASON CITY     CLEAR     45  29  53 N6        30.00R
FOREST CITY *  CLEAR     46  32  57 N3        29.99R
WEBSTER CITY * CLEAR     48  32  53 N5        29.97R
IOWA FALLS *     N/A     48  32  53 N3        29.99R
$$

IAZ007>011-017>019-026>030-037>042-050>054-066-050600-
   NORTHEAST IOWA

CITY           SKY/WX    TMP DP  RH WIND       PRES   REMARKS
CEDAR RAPIDS   CLEAR     46  34  62 N6        29.94R
CHARLES CITY * CLEAR     48  27  43 N7        29.98R
CLINTON *      CLEAR     46  37  71 NE9       29.93R
DECORAH *      CLEAR     50  25  37 NE6       29.97R
DUBUQUE        CLEAR     47  28  47 NE8       29.94R
MONTICELLO *   CLEAR     46  32  57 NE6       29.94R
OELWEIN *      PTCLDY    48  30  49 N9        29.97R
WATERLOO       CLEAR     45  32  60 NW7       29.96R
$$

IAZ064-065-067-068-078-050600-
   EAST CENTRAL IOWA

CITY           SKY/WX    TMP DP  RH WIND       PRES   REMARKS
DAVENPORT      PTCLDY    47  33  58 NE14      29.93R
IOWA CITY      CLEAR     53  33  46 N6        29.95R
MT. PLEASANT * CLEAR     54  36  50 NW3       29.93R
MUSCATINE *    CLEAR     50  34  53 N8        29.93R
QUAD CITIES    CLEAR     53  32  44 NE8       29.91R
$$

IAZ062-063-075>077-085>089-095>099-050600-
   SOUTHEAST IOWA

CITY           SKY/WX    TMP DP  RH WIND       PRES   REMARKS
BURLINGTON     CLEAR     50  35  56 NW7       29.91R
FAIRFIELD *    CLEAR     46  34  61 NW9       29.94R
FORT MADISON * CLEAR     48  37  66 NW6       29.92S
KEOKUK *       CLEAR     52  36  54 CALM      29.91S
OSKALOOSA *      N/A     48  34  57 N7        29.96R
OTTUMWA        CLEAR     47  35  63 N9        29.95R
WASHINGTON *   CLEAR     46  36  66 N7        29.95R
$$

ABBREVIATIONS USED IN REMARKS
   TC - TEMPERATURES IN CELSIUS
  WCI - WIND CHILL INDEX
   HX - HEAT INDEX
  VSB - VISIBILITY
$$




USA.gov is the U.S. government's official web portal to all federal, state and local government web resources and services.